Home > Weather > Besançon > Past weeks

Flag for France Weather for the Past 2 Weeks in Besançon, France

Now
45 °F

Broken clouds.


Feels Like: 40 °F
Forecast: 34 / 41 °F
Wind: 9 mph from South

Location: Dole Tavaux

Current Time: Feb 14, 2016 at 6:18:43 PM

Latest Report: Feb 14, 2016 at 5:00 PM


Visibility: N/A

Pressure: 29.39 "Hg

Humidity: 93%

Dew point: 43 °F

Location of BesançonLocation

Historic Weather in Besançon — Graph

°F

Besançon Temperature Yesterday

Maximum temperature yesterday: 50 °F (at 5:00 PM)
Minimum temperature yesterday: 43 °F (at 1:00 AM)
Average temperature yesterday: 46 °F

High & Low Weather Summary for the Past Weeks

 TemperatureHumidityPressure
High57 °F (Feb 6, 1:30 PM)100% (Jan 31, 6:00 AM)30.54 "Hg (Jan 31, 6:00 AM)
Low30 °F (Feb 11, 6:30 AM)54% (Feb 6, 9:00 PM)29.18 "Hg (Feb 13, 5:00 PM)
Average45 °F86%29.91 "Hg
* Reported Jan 30 5:00 PM — Feb 14 5:00 PM, Besançon, Weather by CustomWeather, © 2016

Note: Actual official high and low records may vary slightly from our data, if they occured in-between our weather recording intervals... More about our weather records

Advertising

Besançon Weather History for the Previous 24 Hours

 ConditionsComfort  
Time TempWeatherWind HumidityBarometerVisibility
5:00 PM
Sun, Feb 14
45 °FBroken clouds.9 mph93%29.39 "HgN/A
4:30 PM43 °FPartly sunny.8 mphN/A29.36 "HgN/A
4:00 PM45 °FPartly sunny.9 mph93%29.36 "HgN/A
3:30 PM43 °FLight rain. Mostly cloudy.10 mph93%29.36 "HgN/A
3:00 PM43 °FLight rain. Mostly cloudy.10 mph93%29.36 "HgN/A
2:30 PM43 °FLight rain. Low clouds.14 mph93%29.33 "HgN/A
2:00 PM43 °FLight rain. Low clouds.13 mph93%29.33 "HgN/A
1:30 PM41 °FLight rain. Low clouds.10 mph100%29.33 "Hg4 mi
1:00 PM41 °FMostly cloudy.9 mphN/A29.33 "HgN/A
12:30 PM41 °FLight rain. Mostly cloudy.13 mph100%29.30 "HgN/A
12:00 PM41 °FLight rain. Mostly cloudy.9 mph93%29.30 "HgN/A
11:30 AM41 °FRain. Low clouds.9 mph93%29.30 "Hg6 mi
11:00 AM41 °FLight rain. Overcast.9 mph93%29.30 "Hg5 mi
10:30 AM41 °FRain. Mostly cloudy.8 mph93%29.27 "Hg6 mi
10:00 AM41 °FLight rain. Mostly cloudy.8 mph100%29.27 "Hg6 mi
9:30 AM41 °FLight rain. Overcast.5 mph100%29.24 "HgN/A
8:30 AM43 °FRain. Mostly cloudy.3 mph93%29.21 "Hg4 mi
8:00 AM43 °FRain. Mostly cloudy.6 mph93%29.18 "Hg4 mi
7:30 AM43 °FRain. Mostly cloudy.3 mph93%29.18 "Hg4 mi
7:00 AM43 °FRain. Overcast.3 mph93%29.18 "Hg4 mi
6:30 AM43 °FRain. Overcast.2 mph93%29.18 "Hg4 mi
6:00 AM45 °FRain. Passing clouds.2 mph87%29.18 "Hg4 mi
5:30 AM45 °FPartly cloudy.3 mph87%29.18 "HgN/A
5:00 AM45 °FLight rain. Mostly cloudy.6 mph87%29.18 "HgN/A
4:30 AM45 °FLight rain. Mostly cloudy.6 mph87%29.18 "HgN/A
4:00 AM45 °FLight rain. Mostly cloudy.10 mph87%29.21 "HgN/A
3:30 AM46 °FLight rain. Mostly cloudy.13 mph82%29.24 "Hg6 mi
3:00 AM46 °FLight rain. Mostly cloudy.14 mph82%29.24 "HgN/A
2:30 AM46 °FOvercast.10 mph76%29.24 "HgN/A
2:00 AM48 °FMostly cloudy.14 mph71%29.24 "HgN/A
1:30 AM48 °FPassing clouds.16 mph71%29.24 "HgN/A
1:00 AM46 °FLight rain. Mostly cloudy.17 mph82%29.27 "HgN/A
12:30 AM46 °FMostly cloudy.16 mph82%29.27 "HgN/A
12:00 AM46 °FPassing clouds.21 mph82%29.27 "HgN/A
11:30 PM
Sat, Feb 13
48 °FOvercast.26 mph76%29.27 "HgN/A
10:30 PM46 °FPartly cloudy.23 mph87%29.24 "HgN/A
10:00 PM48 °FPartly cloudy.25 mph82%29.24 "HgN/A
9:30 PM48 °FPartly cloudy.25 mph82%29.24 "HgN/A
9:00 PM48 °FMostly cloudy.21 mph82%29.24 "HgN/A
8:30 PM48 °FOvercast.25 mph82%29.24 "HgN/A
8:00 PM48 °FOvercast.28 mph82%29.21 "HgN/A
7:30 PM50 °FMostly cloudy.28 mph76%29.21 "HgN/A
7:00 PM48 °FPartly cloudy.18 mph87%29.21 "HgN/A
6:30 PM48 °FLight rain. Mostly cloudy.26 mph87%29.21 "HgN/A
6:00 PM48 °FLight rain. Mostly cloudy.21 mph82%29.18 "HgN/A
Weather by CustomWeather, © 2016

See weather overviewHow to use our weather pages